Change the Weather History Date:

Sunday, November 4, 2012

  Actual Average Record
Temperature  
Mean Temperature 60 °F -  
Max Temperature 66 °F - - ()
Min Temperature 53 °F - - ()
Degree Days  
Heating Degree Days 6    
Growing Degree Days 10 (Base 50)    
Moisture  
Dew Point 49 °F    
Average Humidity 67    
Maximum Humidity 77    
Minimum Humidity 56    
Precipitation  
Precipitation 0.00 in - - ()
Sea Level Pressure  
Sea Level Pressure 29.75 in    
Wind  
Wind Speed 14 mph ()    
Max Wind Speed 22 mph    
Max Gust Speed 38 mph    
Visibility 3.1 miles    
Events Rain    
T = Trace of Precipitation, MM = Missing Value Source: Averaged Metar Reports

Daily Weather History Graph

Daily Weather History Graph

Search for Another Location

Airport or City:

Trip Planner

Search our weather history database for the weather conditions in past years. The results will help you decide how hot, cold, wet, or windy it might be!

Date:

Astronomy

Nov. 04, 2012 Rise Set
Actual Time 6:38 AM CET 4:28 PM CET
Civil Twilight 6:05 AM CET 5:00 PM CET
Nautical Twilight 5:29 AM CET 5:36 PM CET
Astronomical Twilight 4:53 AM CET 6:12 PM CET
Moon 8:44 PM CET (11/4) 11:16 AM CET (11/4)
Length of Visible Light 10h 54m
Length of Day
9h 49m
Waning Gibbous, 74% of the Moon is Illuminated
Nov 4
Waning Gibbous
Nov 7
Last Quarter
Nov 13
New
Nov 20
First Quarter
Nov 28
Full

Hourly Weather History & Observations

Time (CET) Temp. Dew Point Humidity Pressure Visibility Wind Dir Wind Speed Gust Speed Precip Events Conditions
12:15 AM 55.4 °F 46.4 °F 72% 29.83 in - South 15.7 mph - N/A   Clear
12:45 AM 55.4 °F 46.4 °F 72% 29.80 in - SSW 15.7 mph - N/A   Clear
1:15 AM 55.4 °F 46.4 °F 72% 29.80 in - South 15.7 mph - N/A   Clear
1:45 AM 55.4 °F 46.4 °F 72% 29.80 in - South 15.7 mph - N/A   Clear
2:15 AM 55.4 °F 46.4 °F 72% 29.80 in - South 13.4 mph 24.6 mph N/A   Clear
2:45 AM 55.4 °F 46.4 °F 72% 29.80 in - SSW 13.4 mph 24.6 mph N/A   Clear
3:15 AM 53.6 °F 46.4 °F 77% 29.80 in - South 13.4 mph 24.6 mph N/A   Clear
3:45 AM 53.6 °F 46.4 °F 77% 29.77 in - South 11.2 mph 22.4 mph N/A   Clear
4:15 AM 55.4 °F 46.4 °F 72% 29.77 in - South 11.2 mph 22.4 mph N/A   Clear
4:45 AM 55.4 °F 46.4 °F 72% 29.77 in - South 11.2 mph 22.4 mph N/A   Clear
5:15 AM 55.4 °F 46.4 °F 72% 29.77 in - South 11.2 mph 22.4 mph N/A   Clear
5:45 AM - - N/A% - - SSW 13.4 mph - N/A   Clear
6:15 AM 55.4 °F 46.4 °F 72% 29.77 in - South 11.2 mph 22.4 mph N/A   Clear
6:45 AM 55.4 °F 46.4 °F 72% 29.77 in - South 11.2 mph 22.4 mph N/A   Clear
6:51 AM 55.4 °F 46.4 °F 72% 29.77 in - South 13.4 mph 26.8 mph N/A   Clear
7:15 AM 55.4 °F 46.4 °F 72% 29.77 in - SSW 15.7 mph 26.8 mph N/A   Clear
7:45 AM 55.4 °F 48.2 °F 77% 29.80 in - South 15.7 mph - N/A   Clear
8:15 AM 57.2 °F 48.2 °F 72% 29.77 in - South 13.4 mph 24.6 mph N/A   Clear
8:45 AM - - N/A% - - SSW 13.4 mph - N/A   Clear
9:15 AM 60.8 °F 48.2 °F 63% 29.80 in - SSW 17.9 mph - N/A   Clear
9:45 AM 62.6 °F 50.0 °F 63% 29.80 in - SSW 17.9 mph - N/A   Clear
10:15 AM 64.4 °F 50.0 °F 59% 29.80 in - SSW 17.9 mph 31.3 mph N/A   Clear
10:45 AM 64.4 °F 50.0 °F 59% 29.80 in - South 22.4 mph 33.6 mph N/A   Clear
11:15 AM 64.4 °F 50.0 °F 59% 29.77 in - South 20.1 mph 35.8 mph N/A   Clear
11:45 AM - - N/A% - - SSW 13.4 mph - N/A   Clear
12:15 PM 64.4 °F 50.0 °F 59% 29.77 in - SSW 20.1 mph - N/A   Clear
12:45 PM 66.2 °F 50.0 °F 56% 29.77 in - South 20.1 mph 31.3 mph N/A   Clear
1:12 PM 64.4 °F 50.0 °F 59% 29.74 in - SSW 22.4 mph 38.0 mph N/A   Clear
1:15 PM 66.2 °F 51.8 °F 60% 29.74 in - South 22.4 mph 38.0 mph N/A   Clear
1:45 PM 64.4 °F 50.0 °F 59% 29.74 in - South 22.4 mph 33.6 mph N/A   Clear
2:15 PM 64.4 °F 51.8 °F 64% 29.74 in - South 17.9 mph - N/A   Clear
2:45 PM - - N/A% - - South 15.7 mph - N/A   Clear
3:15 PM 64.4 °F 51.8 °F 64% 29.74 in - South 20.1 mph - N/A   Clear
3:45 PM 64.4 °F 50.0 °F 59% 29.74 in - South 20.1 mph 31.3 mph N/A   Clear
4:15 PM 62.6 °F 50.0 °F 63% 29.74 in - South 17.9 mph - N/A   Clear
4:45 PM 62.6 °F 50.0 °F 63% 29.71 in - South 15.7 mph - N/A   Clear
5:15 PM 62.6 °F 50.0 °F 63% 29.71 in - South 13.4 mph 24.6 mph N/A   Clear
5:22 PM 62.6 °F 50.0 °F 63% 29.71 in - South 15.7 mph 26.8 mph N/A   Clear
5:45 PM - - N/A% - 3.1 mi South 15.7 mph - N/A Rain Rain
6:15 PM 62.6 °F 50.0 °F 63% 29.71 in - South 20.1 mph - N/A   Clear
6:45 PM 62.6 °F 50.0 °F 63% 29.71 in - South 20.1 mph 31.3 mph N/A   Clear
7:15 PM 60.8 °F 50.0 °F 68% 29.71 in - SSE 13.4 mph - N/A   Clear
7:45 PM 60.8 °F 50.0 °F 68% 29.71 in - SSE 13.4 mph - N/A   Clear
8:15 PM 60.8 °F 50.0 °F 68% 29.68 in - SE 8.9 mph - N/A   Clear
8:45 PM - - N/A% - 3.1 mi South 15.7 mph - N/A Rain Rain
9:15 PM 60.8 °F 50.0 °F 68% 29.68 in - SSE 8.9 mph - N/A   Clear
9:45 PM 60.8 °F 48.2 °F 63% 29.65 in - South 8.9 mph - N/A   Clear
10:15 PM 60.8 °F 50.0 °F 68% 29.62 in - South 11.2 mph - N/A   Clear
10:45 PM 60.8 °F 50.0 °F 68% 29.62 in - South 13.4 mph 24.6 mph N/A   Clear
11:15 PM 62.6 °F 50.0 °F 63% 29.59 in - South 17.9 mph 29.1 mph N/A   Clear
11:45 PM - - N/A% - 3.1 mi North - - N/A Rain Rain